[Iaude] MPEC F123: 2022 FR3 [a=2.07,e=0.52,i=5.3,H=23.0]

mpec at marsden.cfa.harvard.edu mpec at marsden.cfa.harvard.edu
Tue Mar 29 20:03:07 EDT 2022


M.P.E.C. 2022-F123                               Issued 2022 March 30, 00:01 UT

     The Minor Planet Electronic Circulars contain information on unusual
         minor planets and routine data on comets.  They are published
    on behalf of Division F of the International Astronomical Union by the
          Minor Planet Center, Smithsonian Astrophysical Observatory,
                          Cambridge, MA 02138, U.S.A.

             Prepared using the Tamkin Foundation Computer Network

                              MPC at CFA.HARVARD.EDU
            URL https://www.minorplanetcenter.net/    ISSN 1523-6714

                                    2022 FR3                                    


Observations:
     K22F03R  C2022 03 27.12153 06 29 05.74 +28 55 24.0          20.7 GVEF123G96
     K22F03R  C2022 03 27.12722 06 29 06.90 +28 55 03.0                VEF123G96
     K22F03R* C2022 03 28.11495806 33 16.93 +27 54 32.2          20.60GVEF123G96
     K22F03R  C2022 03 28.12063706 33 18.20 +27 54 09.8          20.61GVEF123G96
     K22F03R  C2022 03 28.13204806 33 20.81 +27 53 24.8          20.45GVEF123G96
     K22F03R  C2022 03 28.17414506 33 30.23 +27 50 33.5          21.0 GVEF123H01
     K22F03R mC2022 03 28.17571506 33 30.82 +27 50 31.2                VEF123I52
     K22F03R mC2022 03 28.17648206 33 31.01 +27 50 27.9          21.24GVEF123I52
     K22F03R mC2022 03 28.17801606 33 31.38 +27 50 21.6          20.95GVEF123I52
     K22F03R  C2022 03 28.17814706 33 31.18 +27 50 17.4          20.5 GVEF123H01
     K22F03R  C2022 03 28.18244706 33 32.19 +27 50 00.1          20.8 GVEF123H01
     K22F03R  C2022 03 28.18777306 33 33.44 +27 49 38.6          20.6 GVEF123H01
     K22F03R  C2022 03 28.21953606 33 44.916+27 48 09.97         20.71GVEF123T12
     K22F03R  C2022 03 28.22111006 33 45.265+27 48 03.62         20.60GVEF123T12
     K22F03R 1C2022 03 28.82032 06 36 24.77 +27 07 18.3          20.6 VXEF123033
     K22F03R 1C2022 03 28.82208 06 36 25.22 +27 07 10.9          20.6 VXEF123033
     K22F03R 1C2022 03 28.82363 06 36 25.65 +27 07 04.2          20.5 VXEF123033
     K22F03R 1C2022 03 28.82516 06 36 25.98 +27 06 57.8          20.6 VXEF123033
     K22F03R 1C2022 03 28.82666 06 36 26.35 +27 06 51.5          20.5 VXEF123033
     K22F03R KC2022 03 28.87352006 36 37.80 +27 03 43.3          19.9 GVEF123104
     K22F03R KC2022 03 28.88229806 36 39.98 +27 03 05.6          20.1 GVEF123104

Observer details:
033 Karl Schwarzschild Observatory, Tautenburg.  Observers S. Melnikov, C.
    Hoegner, U. Laux, F. Ludwig, B. Stecklum.  Measurer B. Stecklum.  1.34-m
    f/3 Schmidt + CCD.
104 San Marcello Pistoiese.  Observers P. Bacci, M. Maestripieri.  Measurers
    P. Bacci, L. Tesi, G. Fagioli.  0.60-m reflector + CCD.
G96 Mt. Lemmon Survey.  Observer R. A. Kowalski.  Measurers B. Gray, D.
    Rankin, F. C. Shelly, E. J. Christensen, G. A. Farneth, J. B. Fazekas, D.
    C. Fuls, A. R. Gibbs, A. D. Grauer, H. Groeller, J. K. Hogan, R. A.
    Kowalski, S. M. Larson, G. J. Leonard, R. L. Seaman, A. Serrano, K. W.
    Wierzchos.  1.5-m reflector + 10K CCD.
H01 Magdalena Ridge Observatory, Socorro.  Observers W. H. Ryan, E. V. Ryan.
    Measurer W. H. Ryan.  2.4-m f/8.9 Ritchey-Chretien + CCD.
I52 Steward Observatory, Mt. Lemmon Station.  Observer H. Groeller.  Measurers
    E. J. Christensen, G. A. Farneth, J. B. Fazekas, D. C. Fuls, A. R. Gibbs,
    A. D. Grauer, H. Groeller, J. K. Hogan, R. A. Kowalski, S. M. Larson, G.
    J. Leonard, D. Rankin, R. L. Seaman, A. Serrano, F. C. Shelly, K. W.
    Wierzchos.
T12 Mauna Kea-UH/Tholen NEO Follow-Up (2.24-m).  Observer D. Hung.  Measurer
    D. J. Tholen.  2.24-m f/10.1 reflector + CCD.

Orbital elements:
2022 FR3                                                 Earth MOID = 0.0062 AU
Epoch 2022 Jan. 21.0 TT = JDT 2459600.5                 Veres                   
M 338.07730              (2000.0)            P               Q                  
n   0.33048489     Peri.  175.54343     -0.99934685     +0.03458976             
a   2.0718977      Node     6.46664     -0.03535792     -0.87615367             
e   0.5160003      Incl.    5.32945     -0.00746314     -0.48078924             
P   2.98           H   23.04          G   0.15           U   8                  
Residuals in seconds of arc
220327 G96  0.4+  0.4+    220328 I52  0.1+  0.1-    220328 033  0.2+  0.3-
220327 G96  0.1-  0.1-    220328 I52  0.3+  0.3-    220328 033  0.3+  0.3-
220328 G96  0.1-  0.2+    220328 H01  0.0   0.0     220328 033  0.9+  0.5-
220328 G96  0.2-  0.0     220328 H01  0.1-  0.0     220328 033  0.2+  0.4-
220328 G96  0.2+  0.1-    220328 H01  0.2-  0.0     220328 033  0.1+  0.4-
220328 H01  0.2-  0.0     220328 T12  0.0   0.1+    220328 104  0.5+  0.1+
220328 I52  0.1-  0.1+    220328 T12  0.0   0.1-    220328 104  0.3-  0.0

Ephemeris:
2022 FR3                 a,e,i = 2.07, 0.52, 5                   q = 1.0028
Date    TT    R. A. (2000) Decl.     Delta      r    Elong.  Phase     V
2022 02 28    05 36 14.7 +40 52 11   0.1988  1.0609   105.5    64.1    21.9
...
2022 03 15    05 54 04.2 +36 34 18   0.1449  1.0161    94.6    77.3    21.6
...
2022 03 23    06 14 19.2 +32 19 26   0.1136  1.0050    91.0    82.5    21.2
...
2022 03 29    06 37 16.5 +26 55 43   0.09015 1.0028    90.3    84.5    20.8
2022 03 30    06 42 03.3 +25 42 53   0.08634 1.0030    90.5    84.6    20.7
2022 03 31    06 47 10.8 +24 22 41   0.08257 1.0033    90.8    84.5    20.6
...
2022 04 06    07 27 26.0 +12 43 00   0.06186 1.0085    95.6    80.9    19.8
...
2022 04 14    09 01 57.4 -17 15 41   0.04697 1.0236   115.1    62.5    18.7
...
2022 04 29    13 14 40.1 -50 13 08   0.08497 1.0746   141.4    35.8    19.3

M. P. C. Staff               (C) Copyright 2022 MPC           M.P.E.C. 2022-F123




More information about the Iaude mailing list